Gustavus, AK

7:00 PM AKST on February 20, 2018 (GMT -0900)
Gustavus

Weather History for PAGS - September, 2012

Change the Weather History Date:

Wednesday, September 12, 2012

  Actual Average Record
Temperature  
Mean Temperature 50 °F -  
Max Temperature 55 °F 59 °F 71 °F (1997)
Min Temperature 46 °F 41 °F 26 °F (1986)
Degree Days  
Heating Degree Days 14    
Moisture  
Dew Point 47 °F    
Average Humidity 86    
Maximum Humidity 94    
Minimum Humidity 77    
Precipitation  
Precipitation 0.00 in - - ()
Sea Level Pressure  
Sea Level Pressure 29.88 in    
Wind  
Wind Speed 3 mph (East)    
Max Wind Speed 9 mph    
Max Gust Speed -    
Visibility 9 miles    
Events      
Averages and records for this station are not official NWS values.
T = Trace of Precipitation, MM = Missing Value Source: NWS Daily Summary

Daily Weather History Graph

Daily Weather History Graph

Search for Another Location

Airport or City:

Trip Planner

Search our weather history database for the weather conditions in past years. The results will help you decide how hot, cold, wet, or windy it might be!

Date:

Astronomy

Sep. 12, 2012 Rise Set
Actual Time 6:27 AM AKDT 7:29 PM AKDT
Civil Twilight 5:46 AM AKDT 8:09 PM AKDT
Nautical Twilight 4:56 AM AKDT 8:59 PM AKDT
Astronomical Twilight 4:00 AM AKDT 9:54 PM AKDT
Moon 2:13 AM AKDT (9/12) 5:50 PM AKDT (9/12)
Length of Visible Light 14h 22m
Length of Day
13h 01m
Waning Crescent, 12% of the Moon is Illuminated
Sep 12
Waning Crescent
Sep 15
New
Sep 22
First Quarter
Sep 29
Full
Oct 7
Last Quarter

Hourly Weather History & Observations

Time (AKDT) Temp. Windchill Dew Point Humidity Pressure Visibility Wind Dir Wind Speed Gust Speed Precip Events Conditions
12:16 AM 48.2 °F - 44.6 °F 87% 29.92 in 10.0 mi Calm Calm - N/A   Overcast
12:36 AM 48.2 °F - 44.6 °F 87% 29.91 in 10.0 mi North 3.5 mph - N/A   Overcast
12:56 AM 48.2 °F - 44.6 °F 87% 29.89 in 10.0 mi NNW 4.6 mph - N/A   Overcast
1:16 AM 48.2 °F - 44.6 °F 87% 29.89 in 10.0 mi NNW 3.5 mph - N/A   Overcast
1:36 AM 50.0 °F - 44.6 °F 82% 29.89 in 10.0 mi Calm Calm - N/A   Overcast
1:56 AM 50.0 °F - 44.6 °F 82% 29.88 in 10.0 mi SSE 5.8 mph - N/A   Overcast
2:16 AM 50.0 °F - 44.6 °F 82% 29.87 in 10.0 mi SE 4.6 mph - N/A   Overcast
2:36 AM 50.0 °F - 44.6 °F 82% 29.86 in 10.0 mi SE 5.8 mph - N/A   Overcast
2:56 AM 50.0 °F - 44.6 °F 82% 29.86 in 10.0 mi SE 6.9 mph - N/A   Overcast
3:16 AM 50.0 °F - 44.6 °F 82% 29.84 in 10.0 mi SSE 8.1 mph - N/A   Overcast
3:36 AM 50.0 °F - 46.4 °F 87% 29.83 in 10.0 mi SE 8.1 mph - N/A   Overcast
3:56 AM 50.0 °F - 44.6 °F 82% 29.83 in 9.0 mi SE 5.8 mph - N/A   Overcast
4:16 AM 50.0 °F - 46.4 °F 87% 29.82 in 9.0 mi SSE 5.8 mph - N/A   Overcast
4:36 AM 50.0 °F - 46.4 °F 87% 29.82 in 9.0 mi ENE 3.5 mph - N/A   Overcast
4:56 AM 48.2 °F - 44.6 °F 87% 29.82 in 10.0 mi NNW 9.2 mph - N/A   Overcast
5:16 AM 48.2 °F - 44.6 °F 87% 29.82 in 10.0 mi NNW 6.9 mph - N/A   Overcast
5:36 AM 48.2 °F - 44.6 °F 87% 29.81 in 10.0 mi North 3.5 mph - N/A   Overcast
5:56 AM 48.2 °F - 44.6 °F 87% 29.80 in 8.0 mi Calm Calm - N/A   Overcast
6:16 AM 48.2 °F - 44.6 °F 87% 29.78 in 9.0 mi Calm Calm - N/A   Overcast
6:36 AM 48.2 °F - 44.6 °F 87% 29.78 in 10.0 mi Calm Calm - N/A   Overcast
6:56 AM 48.2 °F - 44.6 °F 87% 29.79 in 10.0 mi NNW 8.1 mph - N/A   Overcast
7:16 AM 48.2 °F - 44.6 °F 87% 29.78 in 9.0 mi NNE 3.5 mph - N/A   Overcast
7:36 AM 48.2 °F - 44.6 °F 87% 29.79 in 10.0 mi NNW 9.2 mph - N/A   Overcast
7:56 AM 46.4 °F 42.9 °F 42.8 °F 87% 29.80 in 8.0 mi NNW 6.9 mph - N/A   Overcast
8:16 AM 46.4 °F - 42.8 °F 87% 29.79 in 6.0 mi Calm Calm - N/A   Overcast
8:36 AM 46.4 °F 42.4 °F 42.8 °F 87% 29.80 in 10.0 mi NW 8.1 mph - N/A   Overcast
8:56 AM 46.4 °F 41.9 °F 42.8 °F 87% 29.81 in 6.0 mi North 9.2 mph - N/A   Overcast
9:16 AM 46.4 °F 42.9 °F 42.8 °F 87% 29.81 in 5.0 mi North 6.9 mph - N/A   Overcast
9:36 AM 46.4 °F 45.2 °F 42.8 °F 87% 29.80 in 5.0 mi SE 3.5 mph - N/A   Mostly Cloudy
9:56 AM 48.2 °F - 44.6 °F 87% 29.81 in 10.0 mi NW 5.8 mph - N/A   Overcast
10:16 AM 48.2 °F - 44.6 °F 87% 29.81 in 8.0 mi NNW 3.5 mph - N/A   Overcast
10:36 AM 48.2 °F - 44.6 °F 87% 29.82 in 10.0 mi NNW 5.8 mph - N/A   Overcast
10:56 AM 48.2 °F - 44.6 °F 87% 29.83 in 7.0 mi Calm Calm - N/A   Overcast
11:16 AM 48.2 °F - 46.4 °F 93% 29.84 in 5.0 mi Calm Calm - N/A   Overcast
11:36 AM 50.0 °F - 46.4 °F 87% 29.84 in 1.8 mi Calm Calm - N/A   Overcast
11:56 AM 51.8 °F - 46.4 °F 82% 29.85 in 3.0 mi Calm Calm - N/A   Overcast
12:16 PM 51.8 °F - 48.2 °F 88% 29.86 in 6.0 mi East 3.5 mph - N/A   Overcast
12:36 PM 53.6 °F - 50.0 °F 88% 29.86 in 7.0 mi ESE 6.9 mph - N/A   Overcast
12:56 PM 53.6 °F - 50.0 °F 88% 29.88 in 3.0 mi SSW 4.6 mph - N/A   Overcast
1:16 PM 53.6 °F - 50.0 °F 88% 29.89 in 5.0 mi Calm Calm - N/A   Overcast
1:56 PM 55.4 °F - 51.8 °F 88% 29.90 in 10.0 mi SSW 4.6 mph - N/A   Overcast
2:16 PM 55.4 °F - 51.8 °F 88% 29.91 in 10.0 mi South 6.9 mph - N/A   Overcast
2:36 PM 53.6 °F - 51.8 °F 94% 29.91 in 10.0 mi SSE 5.8 mph - N/A   Overcast
2:56 PM 53.6 °F - 50.0 °F 88% 29.91 in 10.0 mi Calm Calm - N/A   Overcast
3:16 PM 53.6 °F - 48.2 °F 82% 29.92 in 5.0 mi South 3.5 mph - N/A   Overcast
3:36 PM 53.6 °F - 48.2 °F 82% 29.92 in 9.0 mi Calm Calm - N/A   Overcast
3:56 PM 53.6 °F - 50.0 °F 88% 29.92 in 10.0 mi ENE 3.5 mph - N/A   Overcast
4:16 PM 55.4 °F - 50.0 °F 82% 29.92 in 10.0 mi Calm Calm - N/A   Overcast
4:36 PM 55.4 °F - 50.0 °F 82% 29.93 in 10.0 mi Calm Calm - N/A   Overcast
4:56 PM 53.6 °F - 48.2 °F 82% 29.93 in 5.0 mi WSW 4.6 mph - N/A   Overcast
5:16 PM 53.6 °F - 50.0 °F 88% 29.93 in 7.0 mi Calm Calm - N/A   Mostly Cloudy
5:36 PM 53.6 °F - 48.2 °F 82% 29.94 in 10.0 mi Calm Calm - N/A   Overcast
5:56 PM 53.6 °F - 50.0 °F 88% 29.94 in 10.0 mi ESE 4.6 mph - N/A   Mostly Cloudy
6:16 PM 53.6 °F - 51.8 °F 94% 29.95 in 10.0 mi SE 4.6 mph - N/A   Overcast
6:36 PM 53.6 °F - 48.2 °F 82% 29.95 in 10.0 mi Calm Calm - N/A   Overcast
6:56 PM 53.6 °F - 50.0 °F 88% 29.96 in 10.0 mi Calm Calm - N/A   Overcast
7:16 PM 53.6 °F - 48.2 °F 82% 29.96 in 10.0 mi Calm Calm - N/A   Overcast
7:36 PM 51.8 °F - 48.2 °F 88% 29.97 in 10.0 mi Calm Calm - N/A   Overcast
7:56 PM 53.6 °F - 46.4 °F 77% 29.98 in 10.0 mi NE 3.5 mph - N/A   Overcast
8:16 PM 53.6 °F - 46.4 °F 77% 29.98 in 10.0 mi ENE 3.5 mph - N/A   Overcast
8:36 PM 51.8 °F - 48.2 °F 88% 29.98 in 10.0 mi Calm Calm - N/A   Overcast
8:56 PM 51.8 °F - 46.4 °F 82% 29.98 in 10.0 mi Calm Calm - N/A   Overcast
9:16 PM 51.8 °F - 46.4 °F 82% 29.98 in 10.0 mi Calm Calm - N/A   Overcast
9:36 PM 51.8 °F - 46.4 °F 82% 29.98 in 10.0 mi Calm Calm - N/A   Overcast
9:56 PM 51.8 °F - 46.4 °F 82% 29.98 in 10.0 mi East 3.5 mph - N/A   Overcast
10:16 PM 51.8 °F - 46.4 °F 82% 29.98 in 4.0 mi Calm Calm - N/A   Overcast
10:36 PM 51.8 °F - 46.4 °F 82% 29.98 in 7.0 mi ESE 3.5 mph - N/A   Overcast
10:56 PM 51.8 °F - 46.4 °F 82% 29.97 in 7.0 mi East 4.6 mph - N/A   Overcast
11:16 PM 50.0 °F - 46.4 °F 87% 29.97 in 10.0 mi Calm Calm - N/A   Overcast
11:36 PM 50.0 °F - 46.4 °F 87% 29.96 in 10.0 mi Calm Calm - N/A   Overcast
11:56 PM 50.0 °F - 46.4 °F 87% 29.96 in 10.0 mi Calm Calm - N/A   Overcast